• Join FlightAware (Why Join?)
  • Login
  • US Flag 
06:17AM EDT


 

Airport Tracker/Info


-or-


 

Live Flight TrackerFlight Track Log ✈ PDT4522 ✈ 17-Apr-2013 ✈ KUNV - KPHL

Flight Track Log - Related Links

Times and Time Zones

All times are in EDT time to prevent confusion due to time zone crossing. See the PDT4522 flight status page for this flight to view local times or setup timezone preferences in your user account.

Time Position Orientation Groundspeed Altitude Reporting Facility
EDT Latitude Longitude Course Direction KTS MPH feet Rate Location/Type
03:40PM 40.8608 -77.7708 115° Southeast 229 264 4,400  Level New York Center
03:41PM 40.8428 -77.7197 115° Southeast 179 206 5,800 1,320 Climbing New York Center
03:41PM 40.8300 -77.6553 105° East 162 186 7,100 1,380 Climbing New York Center
03:42PM 40.8214 -77.5886 100° East 168 193 8,600 1,320 Climbing New York Center
03:43PM 40.8003 -77.5178 111° Southeast 186 214 9,800 1,140 Climbing New York Center
03:44PM 40.7794 -77.4472 111° Southeast 196 226 11,000 540 Climbing New York Center
03:46PM 40.7586 -77.3683 109° East 210 242 11,000  Level New York Center
03:47PM 40.7289 -77.2669 111° Southeast 233 268 11,000  Level New York Center
03:48PM 40.7047 -77.1744 109° East 258 297 11,000  Level New York Center
03:48PM 40.6806 -77.0817 109° East 263 303 11,000  Level New York Center
03:49PM 40.6581 -76.9975 109° East 269 310 11,000  Level New York Center
03:51PM 40.6278 -76.8964 112° Southeast 269 310 11,000  Level New York Center
03:51PM 40.6094 -76.8100 106° East 269 310 11,000  Level New York Center
03:52PM 40.5828 -76.7175 111° Southeast 269 310 11,000  Level New York Center
03:53PM 40.5567 -76.6114 108° East 275 316 11,000  Level New York Center
03:55PM 40.5214 -76.5264 119° Southeast 275 316 11,000  Level New York Center
03:55PM 40.4811 -76.4547 126° Southeast 270 311 11,000  Level New York Center
03:56PM 40.4369 -76.3719 125° Southeast 276 318 11,000  Level New York Center
03:57PM 40.3867 -76.2889 128° Southeast 276 318 11,000  Level New York Center
03:58PM 40.3614 -76.2450 127° Southeast 271 312 11,000 -120 Level FAA TRACON SMA TRACON (SMA)
03:58PM 40.3483 -76.2211 126° Southeast 271 312 10,900 -780 Descending FAA TRACON SMA TRACON (SMA)
03:59PM 40.3303 -76.1892 127° Southeast 275 316 10,500 -1,080 Descending FAA TRACON SMA TRACON (SMA)
03:59PM 40.3150 -76.1636 128° Southeast 281 323 10,200 -1,080 Descending FAA TRACON SMA TRACON (SMA)
03:59PM 40.2969 -76.1311 126° Southeast 288 331 9,800 -1,080 Descending FAA TRACON SMA TRACON (SMA)
04:00PM 40.2819 -76.1033 125° Southeast 295 339 9,500 -900 Descending FAA TRACON SMA TRACON (SMA)
04:00PM 40.2661 -76.0767 128° Southeast 297 342 9,200 -780 Descending FAA TRACON SMA TRACON (SMA)
04:00PM 40.2506 -76.0506 128° Southeast 296 341 9,000 -300 Descending FAA TRACON SMA TRACON (SMA)
04:01PM 40.2328 -76.0181 126° Southeast 289 333 9,000  Level FAA TRACON SMA TRACON (SMA)
04:01PM 40.2200 -75.9931 124° Southeast 273 314 9,000  Level FAA TRACON SMA TRACON (SMA)
04:01PM 40.2072 -75.9689 125° Southeast 268 308 9,000  Level FAA TRACON SMA TRACON (SMA)
04:02PM 40.1914 -75.9386 124° Southeast 267 307 9,000 -600 Level FAA TRACON SMA TRACON (SMA)
04:02PM 40.1775 -75.9136 126° Southeast 270 311 8,600 -1,080 Descending FAA TRACON SMA TRACON (SMA)
04:02PM 40.1661 -75.8853 118° Southeast 296 341 8,300 -1,080 Descending FAA TRACON SMA TRACON (SMA)
04:03PM 40.1650 -75.8472 92° East 284 327 7,900 -1,200 Descending FAA TRACON SMA TRACON (SMA)
04:03PM 40.1625 -75.8133 96° East 289 333 7,500 -1,080 Descending FAA TRACON SMA TRACON (SMA)
04:03PM 40.1553 -75.7747 104° East 295 339 7,200 -960 Descending FAA TRACON SMA TRACON (SMA)
04:04PM 40.1486 -75.7444 106° East 285 328 6,900 -960 Descending FAA TRACON SMA TRACON (SMA)
04:04PM 40.1419 -75.7147 106° East 281 323 6,600 -1,080 Descending FAA TRACON SMA TRACON (SMA)
04:04PM 40.1361 -75.6842 104° East 282 325 6,200 -900 Descending FAA TRACON SMA TRACON (SMA)
04:05PM 40.1278 -75.6464 106° East 279 321 6,000 -300 Descending FAA TRACON SMA TRACON (SMA)
04:05PM 40.1222 -75.6172 104° East 274 315 6,000  Level FAA TRACON SMA TRACON (SMA)
04:05PM 40.1172 -75.5886 103° East 266 306 6,000  Level FAA TRACON SMA TRACON (SMA)
04:06PM 40.1108 -75.5542 104° East 257 296 6,000  Level FAA TRACON SMA TRACON (SMA)
04:06PM 40.1058 -75.5267 103° East 254 292 6,000  Level FAA TRACON SMA TRACON (SMA)
04:06PM 40.1006 -75.5003 105° East 253 291 6,000 -180 Level FAA TRACON SMA TRACON (SMA)
04:07PM 40.0939 -75.4656 104° East 251 289 5,900 -600 Descending FAA TRACON SMA TRACON (SMA)
04:07PM 40.0886 -75.4378 104° East 255 293 5,600 -1,080 Descending FAA TRACON SMA TRACON (SMA)
04:07PM 40.0822 -75.4089 106° East 267 307 5,200 -1,080 Descending FAA TRACON SMA TRACON (SMA)
04:08PM 40.0750 -75.3747 105° East 266 306 4,900 -900 Descending FAA TRACON SMA TRACON (SMA)
04:08PM 40.0683 -75.3453 106° East 269 310 4,600 -1,080 Descending FAA TRACON SMA TRACON (SMA)
04:08PM 40.0614 -75.3156 107° East 266 306 4,200 -1,080 Descending FAA TRACON SMA TRACON (SMA)
04:09PM 40.0539 -75.2808 106° East 258 297 3,900 -1,080 Descending FAA TRACON SMA TRACON (SMA)
04:09PM 40.0483 -75.2544 105° East 246 283 3,500 -1,080 Descending FAA TRACON SMA TRACON (SMA)
04:09PM 40.0433 -75.2272 103° East 249 287 3,200 -780 Descending FAA TRACON SMA TRACON (SMA)
04:10PM 40.0378 -75.1972 104° East 242 278 3,000 -180 Descending FAA TRACON SMA TRACON (SMA)
04:10PM 40.0322 -75.1711 106° East 224 258 3,100  Climbing FAA TRACON SMA TRACON (SMA)
04:10PM 40.0278 -75.1461 103° East 219 252 3,000 -180 Descending FAA TRACON SMA TRACON (SMA)
04:11PM 40.0219 -75.1169 105° East 216 249 3,000  Level FAA TRACON SMA TRACON (SMA)
04:11PM 40.0178 -75.0939 103° East 214 246 3,000 120 Level FAA TRACON SMA TRACON (SMA)
04:11PM 40.0136 -75.0706 103° East 214 246 3,100 120 Climbing FAA TRACON SMA TRACON (SMA)
04:12PM 40.0072 -75.0431 107° East 215 247 3,100 -180 Level FAA TRACON SMA TRACON (SMA)
04:12PM 39.9917 -75.0281 144° Southeast 214 246 3,000 -180 Descending FAA TRACON SMA TRACON (SMA)
04:12PM 39.9736 -75.0289 182° South 220 253 3,000  Level FAA TRACON SMA TRACON (SMA)
04:13PM 39.9569 -75.0475 221° Southwest 199 229 3,000  Level FAA TRACON SMA TRACON (SMA)
04:13PM 39.9425 -75.0606 215° Southwest 204 235 3,000 -300 Level FAA TRACON SMA TRACON (SMA)
04:13PM 39.9311 -75.0747 224° Southwest 177 204 2,800 -900 Descending FAA TRACON SMA TRACON (SMA)
04:14PM 39.9203 -75.0939 234° Southwest 179 206 2,400 -900 Descending FAA TRACON SMA TRACON (SMA)
04:14PM 39.9128 -75.1100 239° Southwest 160 184 2,200 -780 Descending FAA TRACON SMA TRACON (SMA)
04:14PM 39.9064 -75.1242 240° Southwest 143 165 1,900 -1,200 Descending FAA TRACON SMA TRACON (SMA)
04:15PM 39.9011 -75.1386 245° Southwest 120 138 1,400 -1,200 Descending FAA TRACON SMA TRACON (SMA)
04:15PM 39.8975 -75.1517 250° West 118 136 1,100 -780 Descending FAA TRACON SMA TRACON (SMA)
04:15PM 39.8939 -75.1631 248° West 116 133 900 -600 Descending FAA TRACON SMA TRACON (SMA)
04:16PM 39.8894 -75.1783 249° West 116 133 700 -600 Descending FAA TRACON SMA TRACON (SMA)
04:16PM 39.8867 -75.1908 254° West 118 136 500 -600 Descending FAA TRACON SMA TRACON (SMA)
04:16PM 39.8842 -75.2028 255° West 113 130 300 -600 Descending FAA TRACON SMA TRACON (SMA)
04:17PM 39.8822 -75.2108 253° West 105 121 100 -600 Descending FAA TRACON SMA TRACON (SMA)
04:19PM 39.8667 -75.2333 148° Southeast  Level FlightAware Approximate